Location: Newark
(39.6867°N, 100.6772°W)
Time: 04:56:21
(UTC+00:00)

A-11 Canister half - All Passes

Search period start: 18 October 2019 00:00
Search period end: 28 October 2019 00:00
Orbit: 1514 x 1686 km, 47.2° (Epoch: 16 October)

Date Brightness Start Highest point End Pass type
(mag) Time Alt. Az. Time Alt. Az. Time Alt. Az.
18 Oct - 06:21:42 10° SSE 06:27:19 17° SE 06:32:50 10° E visible
18 Oct - 08:21:08 10° SW 08:30:53 60° SE 08:40:20 10° ENE visible
18 Oct - 10:26:05 10° WSW 10:35:56 67° NNW 10:45:27 10° ENE visible
18 Oct - 12:32:34 10° WNW 12:42:05 56° N 12:51:15 10° E daylight
18 Oct - 14:38:12 10° WNW 14:47:46 89° NNE 14:57:04 10° ESE daylight
18 Oct - 16:43:52 10° WNW 16:51:53 33° SW 16:59:48 10° S daylight
19 Oct - 05:59:27 10° SSE 06:04:29 15° ESE 06:09:26 10° E night (unlit)
19 Oct - 07:58:16 10° SW 08:07:59 57° SE 08:17:23 10° ENE visible
19 Oct - 10:03:03 10° WSW 10:12:57 69° NNW 10:22:31 10° ENE visible
19 Oct - 12:09:33 10° WNW 12:19:05 55° N 12:28:17 10° E visible
19 Oct - 14:15:14 10° WNW 14:24:51 85° NNE 14:34:09 10° ESE daylight
19 Oct - 16:20:50 10° WNW 16:29:03 36° SW 16:37:10 10° SSE daylight
20 Oct - 05:37:20 10° SSE 05:41:39 14° ESE 05:45:56 10° E night (unlit)
20 Oct - 07:35:26 10° SSW 07:45:05 54° SE 07:54:26 10° ENE visible
20 Oct - 09:40:01 10° WSW 09:49:59 71° NNW 09:59:36 10° ENE visible
20 Oct - 11:46:32 10° WNW 11:56:05 55° N 12:05:19 10° E visible
20 Oct - 13:52:17 10° WNW 14:01:55 83° NNE 14:11:14 10° ESE daylight
20 Oct - 15:57:49 10° WNW 16:06:13 38° SW 16:14:29 10° SSE daylight
21 Oct - 05:15:26 10° SE 05:18:50 12° ESE 05:22:12 10° E night (unlit)
21 Oct - 07:12:36 10° SSW 07:22:11 51° SE 07:31:28 10° ENE visible
21 Oct - 09:17:00 10° WSW 09:27:00 73° NNW 09:36:40 10° ENE visible
21 Oct - 11:23:30 10° WNW 11:33:05 55° N 11:42:20 10° E visible
21 Oct - 13:29:19 10° WNW 13:38:59 80° NNE 13:48:19 10° ESE daylight
21 Oct - 15:34:48 10° WNW 15:43:23 41° SW 15:51:48 10° SSE daylight
22 Oct - 04:54:00 10° SE 04:56:01 11° ESE 04:58:01 10° ESE night (unlit)
22 Oct - 06:49:48 10° SSW 06:59:17 48° SE 07:08:31 10° ENE visible
22 Oct - 08:53:59 10° WSW 09:04:02 76° NNW 09:13:44 10° ENE visible
22 Oct - 11:00:27 10° WNW 11:10:05 55° N 11:19:22 10° ENE visible
22 Oct - 13:06:20 10° WNW 13:16:03 77° NNE 13:25:23 10° ESE daylight
22 Oct - 15:11:48 10° WNW 15:20:33 44° SW 15:29:05 10° SSE daylight
23 Oct - 06:27:02 10° SSW 06:36:24 45° SE 06:45:32 10° ENE visible
23 Oct - 08:31:00 10° WSW 08:41:04 78° NNW 08:50:49 10° ENE visible
23 Oct - 10:37:24 10° WNW 10:47:04 55° N 10:56:23 10° ENE visible
23 Oct - 12:43:23 10° WNW 12:53:06 75° NNE 13:02:27 10° ESE daylight
23 Oct - 14:48:47 10° WNW 14:57:42 47° SW 15:06:22 10° SSE daylight
24 Oct - 06:04:15 10° SSW 06:13:31 42° SE 06:22:34 10° ENE visible
24 Oct - 08:07:59 10° WSW 08:18:06 81° NNW 08:27:53 10° ENE visible
24 Oct - 10:14:22 10° W 10:24:04 55° N 10:33:26 10° ENE visible
24 Oct - 12:20:24 10° WNW 12:30:09 72° NNE 12:39:31 10° ESE visible
24 Oct - 14:25:48 10° WNW 14:34:51 50° SW 14:43:37 10° SSE daylight
24 Oct - 16:35:52 10° WSW 16:37:55 11° WSW 16:39:58 10° SW daylight
25 Oct - 05:41:30 10° SSW 05:50:38 40° SE 05:59:33 10° ENE night (unlit)
25 Oct - 07:45:00 10° WSW 07:55:08 84° NNW 08:04:58 10° ENE visible
25 Oct - 09:51:19 10° W 10:01:04 56° N 10:10:27 10° ENE visible
25 Oct - 11:57:25 10° WNW 12:07:11 70° NNE 12:16:34 10° ESE visible
25 Oct - 14:02:49 10° WNW 14:11:58 53° SW 14:20:52 10° SSE daylight
25 Oct - 16:11:48 10° W 16:15:08 12° WSW 16:18:28 10° SW daylight
26 Oct - 05:18:46 10° SSW 05:27:45 37° SE 05:36:33 10° ENE night (unlit)
26 Oct - 07:22:01 10° WSW 07:32:11 86° NNW 07:42:02 10° ENE visible
26 Oct - 09:28:16 10° W 09:38:03 56° N 09:47:29 10° ENE visible
26 Oct - 11:34:26 10° WNW 11:44:13 68° NNE 11:53:37 10° ESE visible
26 Oct - 13:39:50 10° WNW 13:49:06 56° SW 13:58:06 10° SE daylight
26 Oct - 15:48:07 10° W 15:52:21 14° WSW 15:56:32 10° SSW daylight
27 Oct - 04:56:04 10° SSW 05:04:52 35° SE 05:13:32 10° ENE night (unlit)
27 Oct - 06:59:02 10° WSW 07:09:13 89° NNW 07:19:06 10° ENE visible
27 Oct - 09:05:13 10° W 09:15:02 57° N 09:24:31 10° ENE visible
27 Oct - 11:11:28 10° WNW 11:21:15 67° NNE 11:30:39 10° E visible
27 Oct - 13:16:51 10° WNW 13:26:14 60° SW 13:35:18 10° SE daylight
27 Oct - 15:24:38 10° W 15:29:33 15° WSW 15:34:26 10° SSW daylight
